Location: Espelette
(43.3402°N, 1.4474°W)
Time: 20:04:27
(UTC+00:00)

USA 229 - Pass Details

Date: 19 May 2025
Orbit: 872 x 1339 km, 63.4° (Epoch: 20 June)

Event Time Altitude Azimuth Distance (km) Brightness Sun altitude
Exits shadow 23:20:50 61° 135° (SE) 1,070 3.4 -26.0°
Maximum altitude 23:21:09 62° 120° (ESE) 1,067 3.4 -26.0°
Drops below altitude 10° 23:27:37 10° 42° (NE) 2,836 6.4 -26.2°
Sets 23:30:25 0° 39° (NE) 3,864 7.2 -26.2°
